"Pseudo-MPEC" for P21DvP8

Created 2023 Mar 30 0:22:15 UT using Find_Orb

Click here for an explanation of pseudo-MPECs

 
 Astrometry: 
     P21DvP8* C2023 03 16E8qOAoAstrometry3w/U+Ih_]BP!3H\SH-2:PO4vB_lq4giePDJTF52
     P21DvP8  C2023 03 163/7/:lBbOOd\a$fklb3R/^TC%wbVAredacted;30.v!qjnclick9F52
     P21DvP8  C2023 03 16,CCpY*OEOAbMhereq!for'nXV\Clb@nZ0s=explanation_pgr!qF52

Station data:
(F52) Pan-STARRS 2, Haleakala  (N20.707382 W156.255910)  US/Hawaii.
   Observers J. Bulger, T. Dukes, T. Lowe, A. Schultz, M. Willman. Measurers
   K. Chambers, S. Chastel, T. de Boer, L. Denneau, J. Fairlamb, H.
   Flewelling, M. Huber, C.-C. Lin, E. Magnier, Y. Ramanjooloo, R. Wainscoat,
   R. Weryk. 1.8-m Ritchey-Chrétien + CCD.

Orbital elements:  P21DvP8
   Perihelion 2023 Mar 30.95325 +/- 50.8 TT = 22:52:40 (JD 2460034.45325)
Epoch 2023 Mar 16.0 TT = JDT 2460019.5   Earth MOID: 0.3816      AutoNEOCP
M 354.30837105 +/- 35               (J2000 ecliptic)
n   0.38062831 +/- 0.369            Peri.   15.39159 +/- 70
a   1.88568287 +/- 1.22             Node   160.38257 +/- 16
e   0.2754060 +/- 0.273             Incl.   25.00869 +/- 15
P   2.59/945.79d           H 21.97  G  0.15   U 12.1  SR
q 1.36635442 +/- 0.472    Q 2.40501133 +/- 33.7
From 3 observations 2023 Mar. 16 (49.2 min); mean residual 0".05
Residuals in arcseconds: 
230316 F52  .00   .03-    230316 F52  .00   .10+    230316 F52  .00   .06-    

Ephemerides (geocentric):
Date (UTC) HH   RA             Dec           delta  r     elong  mag " sig PA
---- --------  ------------   ------------  ------ ------ -----  --- --------
2023 03 30 00  09 57 24.782   +30 57 01.19  .49276 1.3664 129.6 22.6  26d  14
2023 03 30 01  09 57 28.087   +30 58 25.31  .49299 1.3664 129.6 22.6  26d  14
2023 03 30 02  09 57 31.397   +30 59 49.29  .49322 1.3664 129.5 22.6  26d  14
2023 03 30 03  09 57 34.712   +31 01 13.13  .49345 1.3664 129.5 22.6  26d  14
2023 03 30 04  09 57 38.032   +31 02 36.82  .49368 1.3664 129.4 22.6  26d  14
2023 03 30 05  09 57 41.357   +31 04 00.36  .49392 1.3664 129.4 22.6  26d  14
2023 03 30 06  09 57 44.686   +31 05 23.77  .49415 1.3664 129.4 22.6  26d  14
2023 03 30 07  09 57 48.021   +31 06 47.03  .49438 1.3664 129.3 22.6  26d  14
2023 03 30 08  09 57 51.361   +31 08 10.14  .49461 1.3664 129.3 22.6  26d  14
2023 03 30 09  09 57 54.705   +31 09 33.11  .49485 1.3664 129.2 22.6  26d  14
2023 03 30 10  09 57 58.055   +31 10 55.94  .49508 1.3664 129.2 22.6  26d  14
2023 03 30 11  09 58 01.409   +31 12 18.63  .49531 1.3664 129.1 22.6  26d  14
2023 03 30 12  09 58 04.768   +31 13 41.17  .49555 1.3664 129.1 22.6  26d  14
2023 03 30 13  09 58 08.132   +31 15 03.58  .49578 1.3664 129.1 22.6  26d  14
2023 03 30 14  09 58 11.501   +31 16 25.83  .49601 1.3664 129.0 22.6  26d  14
2023 03 30 15  09 58 14.875   +31 17 47.95  .49625 1.3664 129.0 22.6  26d  13
2023 03 30 16  09 58 18.254   +31 19 09.92  .49648 1.3664 128.9 22.6  26d  13
2023 03 30 17  09 58 21.637   +31 20 31.75  .49672 1.3664 128.9 22.6  26d  13
2023 03 30 18  09 58 25.026   +31 21 53.44  .49695 1.3664 128.9 22.6  26d  13
2023 03 30 19  09 58 28.419   +31 23 14.98  .49719 1.3664 128.8 22.6  26d  13
2023 03 30 20  09 58 31.817   +31 24 36.38  .49742 1.3664 128.8 22.6  26d  13
2023 03 30 21  09 58 35.220   +31 25 57.64  .49766 1.3664 128.7 22.6  26d  13
2023 03 30 22  09 58 38.628   +31 27 18.76  .49789 1.3664 128.7 22.6  26d  13
2023 03 30 23  09 58 42.041   +31 28 39.73  .49813 1.3664 128.7 22.6  26d  13
2023 03 31 00  09 58 45.458   +31 30 00.57  .49837 1.3664 128.6 22.6  26d  13
2023 03 31 01  09 58 48.881   +31 31 21.26  .49860 1.3664 128.6 22.6  26d  13
2023 03 31 02  09 58 52.308   +31 32 41.81  .49884 1.3664 128.5 22.6  26d  13
2023 03 31 03  09 58 55.740   +31 34 02.21  .49907 1.3664 128.5 22.6  26d  13
2023 03 31 04  09 58 59.177   +31 35 22.48  .49931 1.3664 128.4 22.6  26d  13
2023 03 31 05  09 59 02.619   +31 36 42.60  .49955 1.3664 128.4 22.6  27d  13
2023 03 31 06  09 59 06.066   +31 38 02.58  .49979 1.3664 128.4 22.6  27d  13
2023 03 31 07  09 59 09.517   +31 39 22.42  .50002 1.3664 128.3 22.6  27d  13
2023 03 31 08  09 59 12.973   +31 40 42.12  .50026 1.3664 128.3 22.6  27d  13
2023 03 31 09  09 59 16.434   +31 42 01.68  .50050 1.3664 128.2 22.6  27d  13
2023 03 31 10  09 59 19.900   +31 43 21.10  .50074 1.3664 128.2 22.6  27d  13
2023 03 31 11  09 59 23.371   +31 44 40.37  .50097 1.3664 128.2 22.6  27d  13
2023 03 31 12  09 59 26.846   +31 45 59.51  .50121 1.3664 128.1 22.6  27d  13
2023 03 31 13  09 59 30.327   +31 47 18.50  .50145 1.3664 128.1 22.6  27d  13
2023 03 31 14  09 59 33.812   +31 48 37.35  .50169 1.3664 128.0 22.6  27d  13
2023 03 31 15  09 59 37.302   +31 49 56.06  .50193 1.3664 128.0 22.6  27d  13
2023 03 31 16  09 59 40.796   +31 51 14.63  .50217 1.3664 128.0 22.6  27d  13
2023 03 31 17  09 59 44.295   +31 52 33.06  .50241 1.3664 127.9 22.6  27d  12
2023 03 31 18  09 59 47.800   +31 53 51.35  .50265 1.3664 127.9 22.6  27d  12
2023 03 31 19  09 59 51.309   +31 55 09.50  .50289 1.3664 127.8 22.6  27d  12
2023 03 31 20  09 59 54.822   +31 56 27.51  .50313 1.3664 127.8 22.7  27d  12
2023 03 31 21  09 59 58.341   +31 57 45.37  .50337 1.3664 127.8 22.7  27d  12
2023 03 31 22  10 00 01.864   +31 59 03.10  .50361 1.3664 127.7 22.7  27d  12
2023 03 31 23  10 00 05.392   +32 00 20.69  .50385 1.3664 127.7 22.7  27d  12